Tracking 28565 objects as of 3-Mar-2024
HD Live streaming from Space Station
objects crossing your sky now

FENGYUN 1C DEB

Track FENGYUN 1C DEB now!
10-day predictions


NORAD ID: 32416
Int'l Code: 1999-025DAC
Perigee: 848.3 km
Apogee: 1,209.7 km
Inclination: 100.8 °
Period: 105.6 minutes
Semi major axis: 7399 km
RCS: 0.0112 m2 (small)
Launch date: May 10, 1999
Source: People's Republic of China (PRC)
Launch site: Taiyaun Space Center, China (TSC)

Note: This is SATELLITE DEBRIS
Your satellite tracking list
Your tracking list is empty




NASA's NSSDC Master Catalog

Two Line Element Set (TLE):
1 32416U 99025DAC 24060.25450296  .00000996  00000-0  10791-2 0  9990
2 32416 100.8338  69.2281 0244221  64.8674 359.4508 13.63815794527307
Source of the keplerian elements: AFSPC